Terminal Aerodrome Forecast
Issued by NWS Mt. Holly, NJ

Home | Current Version | Previous Version | Text Only | Print | Product List | Glossary On
Versions: 1 2 3 4 5 6 7 8 9 10 11 12 13 14 15 16 17 18 19 20 21 22 23 24 25
000
FTUS41 KPHI 172300
TAFRDG
TAF
KRDG 172320Z 1800/1824 29010G19KT P6SM SCT040
      TEMPO 1800/1804 BKN040
     FM181500 30015G26KT P6SM BKN040
     FM182300 30010KT P6SM SCT045=

USA.gov is the U.S. government's official web portal to all federal, state and local government web resources and services.